When you browse on this site, cookies collect data to enhance your experience and personalize the content and advertising you see.
Visit our Privacy Policy to learn more. By continuing to use the site, you agree to this use of cookies and data.
  • In Switzerland
  • List of Countries
  • For 7 days
  • Water Temperature
  • Weather Map
  • Weather Widgets
  • user-avatar
    Login

    Hourly Weather Suschevo

    Today, 25 August, Sunday

    Time Temperature Precipitation Wind Pressure Humidity
    00:00 +14°C° 0 mm 1 mps 748 mmHg 94%
    01:00 +14°C° 0 mm 1 mps 748 mmHg 94%
    02:00 +14°C° 0 mm 1 mps 748 mmHg 95%
    03:00 +13°C° 0 mm 1 mps 748 mmHg 95%
    04:00 +13°C° 0 mm 1 mps 749 mmHg 95%
    05:00 +13°C° 0 mm 1 mps 749 mmHg 95%
    06:00 +14°C° 0 mm 1 mps 749 mmHg 89%
    07:00 +16°C° 0 mm 1 mps 749 mmHg 83%
    08:00 +19°C° 0 mm 1 mps 750 mmHg 76%
    09:00 +20°C° 0 mm 1 mps 750 mmHg 70%
    10:00 +20°C° 0 mm 2 mps 750 mmHg 64%
    11:00 +21°C° 0 mm 2 mps 750 mmHg 58%
    12:00 +23°C° 0 mm 2 mps 750 mmHg 56%
    13:00 +23°C° 0 mm 2 mps 750 mmHg 54%
    14:00 +23°C° 0 mm 2 mps 750 mmHg 53%
    15:00 +23°C° 0 mm 2 mps 750 mmHg 57%
    16:00 +22°C° 0 mm 1 mps 750 mmHg 62%
    17:00 +22°C° 0 mm 1 mps 750 mmHg 67%
    18:00 +20°C° 0 mm 1 mps 750 mmHg 71%
    19:00 +18°C° 0 mm 1 mps 750 mmHg 75%
    20:00 +15°C° 0 mm 1 mps 750 mmHg 79%
    21:00 +14°C° 0 mm 1 mps 750 mmHg 82%
    22:00 +13°C° 0 mm 1 mps 750 mmHg 84%
    23:00 +13°C° 0 mm 1 mps 750 mmHg 87%

    Tomorrow, 26 August, Monday

    Time Temperature Precipitation Wind Pressure Humidity
    00:00 +12°C° 0 mm 1 mps 750 mmHg 88%
    01:00 +12°C° 0 mm 1 mps 750 mmHg 89%
    02:00 +12°C° 0 mm 1 mps 751 mmHg 90%
    03:00 +12°C° 0 mm 1 mps 750 mmHg 91%
    04:00 +10°C° 0 mm 0 mps 750 mmHg 92%
    05:00 +10°C° 0 mm 0 mps 750 mmHg 92%
    06:00 +12°C° 0 mm 0 mps 750 mmHg 86%
    07:00 +14°C° 0 mm 0 mps 750 mmHg 79%
    08:00 +16°C° 0 mm 0 mps 751 mmHg 73%
    09:00 +20°C° 0 mm 1 mps 750 mmHg 68%
    10:00 +21°C° 0 mm 1 mps 750 mmHg 64%
    11:00 +22°C° 0 mm 1 mps 750 mmHg 59%
    12:00 +23°C° 0 mm 2 mps 750 mmHg 58%
    13:00 +23°C° 0 mm 2 mps 750 mmHg 57%
    14:00 +24°C° 0 mm 2 mps 749 mmHg 56%
    15:00 +23°C° 0 mm 2 mps 749 mmHg 60%
    16:00 +23°C° 0 mm 2 mps 748 mmHg 65%
    17:00 +21°C° 0 mm 2 mps 748 mmHg 70%
    18:00 +20°C° 0 mm 2 mps 748 mmHg 76%
    19:00 +18°C° 0 mm 2 mps 748 mmHg 81%
    20:00 +16°C° 0 mm 2 mps 747 mmHg 86%
    21:00 +16°C° 0 mm 2 mps 747 mmHg 88%
    22:00 +16°C° 0 mm 2 mps 747 mmHg 89%
    23:00 +15°C° 0 mm 2 mps 747 mmHg 90%

    Day after tomorrow, 27 August, Tuesday

    Time Temperature Precipitation Wind Pressure Humidity
    00:00 +15°C° 0 mm 2 mps 747 mmHg 91%
    01:00 +15°C° 0 mm 2 mps 747 mmHg 92%
    02:00 +15°C° 0 mm 2 mps 746 mmHg 93%
    03:00 +15°C° 0 mm 2 mps 746 mmHg 94%
    04:00 +15°C° 0 mm 2 mps 746 mmHg 95%
    05:00 +15°C° 0 mm 2 mps 746 mmHg 97%
    06:00 +16°C° 0 mm 3 mps 746 mmHg 92%
    07:00 +17°C° 0 mm 3 mps 746 mmHg 88%
    08:00 +18°C° 0 mm 3 mps 746 mmHg 84%
    09:00 +19°C° 0 mm 3 mps 746 mmHg 78%
    10:00 +21°C° 0 mm 3 mps 746 mmHg 72%
    11:00 +22°C° 0 mm 4 mps 746 mmHg 66%
    12:00 +22°C° 0 mm 4 mps 746 mmHg 63%
    13:00 +22°C° 0 mm 4 mps 746 mmHg 61%
    14:00 +23°C° 0 mm 4 mps 746 mmHg 58%
    15:00 +22°C° 0 mm 4 mps 746 mmHg 61%
    16:00 +22°C° 0 mm 3 mps 746 mmHg 65%
    17:00 +21°C° 0 mm 3 mps 746 mmHg 68%
    18:00 +19°C° 0 mm 3 mps 746 mmHg 72%
    19:00 +17°C° 0 mm 2 mps 746 mmHg 76%
    20:00 +15°C° 0 mm 2 mps 746 mmHg 80%
    21:00 +15°C° 0 mm 2 mps 747 mmHg 81%
    22:00 +14°C° 0 mm 2 mps 747 mmHg 82%
    23:00 +13°C° 0 mm 2 mps 747 mmHg 83%

    28 August, Wednesday

    Time Temperature Precipitation Wind Pressure Humidity
    00:00 +12°C° 0 mm 2 mps 747 mmHg 86%
    01:00 +12°C° 0 mm 2 mps 747 mmHg 88%
    02:00 +12°C° 0 mm 2 mps 747 mmHg 91%
    03:00 +10°C° 0 mm 2 mps 748 mmHg 93%
    04:00 +10°C° 0 mm 2 mps 748 mmHg 95%
    05:00 +10°C° 0 mm 2 mps 748 mmHg 97%
    06:00 +12°C° 0 mm 2 mps 748 mmHg 90%
    07:00 +13°C° 0 mm 2 mps 749 mmHg 84%
    08:00 +13°C° 0 mm 3 mps 749 mmHg 77%
    09:00 +14°C° 0 mm 3 mps 749 mmHg 70%
    10:00 +16°C° 0 mm 3 mps 749 mmHg 63%
    11:00 +17°C° 0 mm 3 mps 749 mmHg 55%
    12:00 +18°C° 0 mm 3 mps 749 mmHg 52%
    13:00 +18°C° 0 mm 3 mps 749 mmHg 49%
    14:00 +19°C° 0 mm 3 mps 749 mmHg 46%
    15:00 +18°C° 0 mm 2 mps 749 mmHg 50%
    16:00 +18°C° 0 mm 2 mps 749 mmHg 55%
    17:00 +17°C° 0 mm 2 mps 748 mmHg 60%
    18:00 +15°C° 0 mm 2 mps 749 mmHg 63%
    19:00 +13°C° 0 mm 2 mps 749 mmHg 67%
    20:00 +10°C° 0 mm 2 mps 749 mmHg 70%
    21:00 +9°C° 0 mm 2 mps 749 mmHg 72%
    22:00 +8°C° 0 mm 2 mps 749 mmHg 74%
    23:00 +8°C° 0 mm 2 mps 750 mmHg 76%

    29 August, Thursday

    Time Temperature Precipitation Wind Pressure Humidity
    00:00 +7°C° 0 mm 2 mps 750 mmHg 78%
    01:00 +7°C° 0 mm 2 mps 750 mmHg 80%
    02:00 +6°C° 0 mm 2 mps 750 mmHg 82%
    03:00 +6°C° 0 mm 2 mps 750 mmHg 84%
    04:00 +6°C° 0 mm 2 mps 750 mmHg 85%
    05:00 +6°C° 0 mm 1 mps 750 mmHg 87%
    06:00 +7°C° 0 mm 2 mps 750 mmHg 80%
    07:00 +9°C° 0 mm 2 mps 751 mmHg 73%
    08:00 +12°C° 0 mm 2 mps 751 mmHg 66%
    09:00 +13°C° 0 mm 2 mps 751 mmHg 60%
    10:00 +15°C° 0 mm 2 mps 750 mmHg 54%
    11:00 +16°C° 0 mm 2 mps 750 mmHg 48%
    12:00 +17°C° 0 mm 2 mps 750 mmHg 48%
    13:00 +18°C° 0 mm 2 mps 750 mmHg 47%
    14:00 +18°C° 0 mm 2 mps 750 mmHg 47%
    15:00 +18°C° 0 mm 2 mps 749 mmHg 52%
    16:00 +19°C° 0 mm 1 mps 749 mmHg 58%
    17:00 +18°C° 0 mm 1 mps 749 mmHg 64%
    18:00 +15°C° 0 mm 1 mps 749 mmHg 68%
    19:00 +14°C° 0 mm 1 mps 749 mmHg 73%
    20:00 +12°C° 0 mm 1 mps 749 mmHg 78%
    21:00 +11°C° 0 mm 1 mps 749 mmHg 79%
    22:00 +11°C° 0 mm 1 mps 749 mmHg 81%
    23:00 +10°C° 0 mm 1 mps 749 mmHg 82%

    30 August, Friday

    Time Temperature Precipitation Wind Pressure Humidity
    00:00 +10°C° 0 mm 1 mps 749 mmHg 83%
    01:00 +10°C° 0 mm 1 mps 749 mmHg 84%
    02:00 +9°C° 0 mm 1 mps 749 mmHg 84%
    03:00 +9°C° 0 mm 1 mps 748 mmHg 85%
    04:00 +9°C° 0 mm 1 mps 748 mmHg 86%
    05:00 +9°C° 0 mm 1 mps 748 mmHg 86%
    06:00 +11°C° 0 mm 1 mps 748 mmHg 79%
    07:00 +13°C° 0 mm 1 mps 749 mmHg 73%
    08:00 +15°C° 0 mm 1 mps 749 mmHg 66%
    09:00 +16°C° 0 mm 1 mps 749 mmHg 61%
    10:00 +19°C° 0 mm 1 mps 749 mmHg 57%
    11:00 +20°C° 0 mm 1 mps 749 mmHg 53%
    12:00 +21°C° 0 mm 1 mps 749 mmHg 53%
    13:00 +21°C° 0 mm 1 mps 749 mmHg 52%
    14:00 +21°C° 0 mm 2 mps 748 mmHg 52%
    15:00 +21°C° 0 mm 1 mps 748 mmHg 58%
    16:00 +21°C° 0 mm 1 mps 748 mmHg 64%
    17:00 +20°C° 0 mm 1 mps 748 mmHg 69%
    18:00 +18°C° 0 mm 1 mps 748 mmHg 74%
    19:00 +16°C° 0 mm 1 mps 748 mmHg 78%
    20:00 +13°C° 0 mm 0 mps 748 mmHg 83%
    21:00 +14°C° 0 mm 1 mps 749 mmHg 84%
    22:00 +13°C° 0 mm 1 mps 749 mmHg 84%
    23:00 +13°C° 0 mm 1 mps 749 mmHg 85%
    Show more